Regional Weather Roundup
Issued by NWS Charleston, SC

Current Version | Previous Version | Graphics & Text | Print | Product List | Glossary On
Versions: 1 2 3 4 5 6 7 8 9 10 11 12 13 14 15 16 17 18 19 20 21 22 23 24 25 26 27 28 29 30 31 32 33 34 35 36 37 38 39 40 41 42 43 44 45 46 47 48 49 50
000
ASUS42 KCHS 191510
RWRCHS
REGIONAL WEATHER ROUNDUP
NATIONAL WEATHER SERVICE CHARLESTON SC
1000 AM EST FRI DEC 19 2014

NOTE: "FAIR" INDICATES FEW OR NO CLOUDS BELOW 12,000 FEET WITH NO
SIGNIFICANT WEATHER AND/OR OBSTRUCTIONS TO VISIBILITY.

NOT ALL STATIONS ARE QUALITY CONTROLLED BY THE NATIONAL
WEATHER SERVICE. USE DATA WITH CAUTION...ESPECIALLY
DEWPOINT OBSERVATIONS.

SCZ027-030-031-034>040-042>050-191600-
...SOUTHEAST SOUTH CAROLINA...

CITY           SKY/WX    TMP DP  RH WIND       PRES   REMARKS
N CHARLESTON   PTSUNNY   53  45  74 N3        30.16S
WATERFRONT PRK   N/A     52 N/A N/A N6          N/A
MOUNT PLEASANT FAIR      52  48  87 CALM      30.16S
PINOPOLIS        N/A     52  45  76 CALM      30.10R
MONCKS CORNER  FAIR      52  46  82 CALM      30.16S
SUMMERVILLE    NOT AVBL
BEAUFORT MCAS  PTSUNNY   55  42  61 NW3       30.16R
BEAUFORT ARPT  FAIR      54  45  71 NW5       30.15S
HILTON HEAD IS MOSUNNY   57  43  58 N3        30.17R
WALTERBORO     CLOUDY    50  45  81 NW3       30.17R
ALLENDALE      FAIR      46  41  81 CALM      30.15F

...SOUTHERN MIDLANDS AND PEE DEE...

CITY           SKY/WX    TMP DP  RH WIND       PRES   REMARKS
GEORGETOWN     NOT AVBL
KINGSTREE      NOT AVBL
ORANGEBURG     MOSUNNY   45  39  79 NE5       30.16S
BARNWELL         N/A     46  43  87 N5        30.16F
AIKEN          FAIR      48  37  66 N6        30.18S
MANNING        NOT AVBL
COLUMBIA       MOSUNNY   49  38  65 E6        30.17R
SUMTER         SUNNY     49  33  53 NE9       30.16S
FLORENCE       SUNNY     50  29  44 E10       30.19R
MYRTLE BEACH   NOT AVBL
N MYRTLE BEACH SUNNY     50  34  54 NE8       30.18R

$$

GAZ063-065-086>088-099>101-113>116-118-119-134>141-150-191600-
...SOUTHEAST GEORGIA...

CITY           SKY/WX    TMP DP  RH WIND       PRES   REMARKS
SAVANNAH ARPT  PTSUNNY   55  39  54 NW6       30.17R
HUNTER AAF     MOSUNNY   57  41  54 N3        30.14R
FORT STEWART   PTSUNNY   56  40  55 N5        30.15S
STATESBORO     CLOUDY    49  40  71 N3        30.16S
SYLVANIA       CLOUDY    46  42  83 CALM      30.17S
CLAXTON        FAIR      50  41  71 N3        30.17S

...CSRA...CENTRAL AND FAR SOUTHEAST GEORGIA...

CITY           SKY/WX    TMP DP  RH WIND       PRES   REMARKS
THOMSON        PTSUNNY   47  41  80 N3        30.21R
AUGUSTA-BUSH   MOSUNNY   47  40  76 N6        30.16F
AUGUSTA-DANIEL MOSUNNY   50  36  58 N7        30.16S
SWAINSBORO     FAIR      48  41  76 N3        30.16F
VIDALIA        PTSUNNY   48  39  71 N3        30.17R
EASTMAN        FAIR      45  40  83 CALM      30.20R
HAZLEHURST     FAIR      48  39  71 CALM      30.17R
ALMA           CLOUDY    51  37  58 NW3       30.17R
WAYCROSS       PTSUNNY   55  42  61 CALM      30.18R
JESUP          FAIR      57  43  58 CALM      30.17R
BAXLEY         FAIR      54  39  58 N5        30.17R
BRUNSWICK      CLOUDY    55  41  58 N3        30.18R
SAINT SIMONS   PTSUNNY   55  41  59 N7        30.17R

$$

SCZ027-028-034-036>038-045-046-048>050-GAZ119-141-191600-
...LAKE AND SUPPLEMENTAL COASTAL OBSERVATIONS...

STATION/POSITION TIME  TEMP    WIND        PRES    WAVE   SWELL
                       AIR SEA DIR/SP/G            HT/PER HT/PER/DIR
                 (UTC) (F)     (DEG/KT/KT) (MB)    (FT/S) (FT/S/D)
UPR LAKE MARION  NOT AVBL
WINYAH BAY       1400   49      10/  2     1020.0S
LAKE MURRAY      1400   45     360/  2/  4 1021.0R
ACE BASIN NERRS  1400   46     320/  1     1020.0S
FORT PULASKI     1500   53 56  320/  4/  5 1021.6F
SAPELO ISLAND    1400   50     350/  4     1021.0S

$$

ANZ835-935-AMZ111-154-330-350-352-354-370-450-454-472-191600-
...C-MAN AND BUOY OBSERVATIONS...

STATION/POSITION TIME  TEMP    WIND        PRES    WAVE   SWELL
                       AIR SEA DIR/SP/G            HT/PER HT/PER/DIR
                 (UTC) (F)     (DEG/KT/KT) (MB)    (FT/S) (FT/S/D)
BUOY 41004       1500   61 68  350/  6/  8 1020.9R   1/11   2/11
BUOY 41008       1500   56 57  350/  8/  8 1021.3R   1/11
FOLLY BEACH CMAN 1400   52     350/  2/  3 1021.4R
CAPERS NEARSHORE 1400   56      10/  4/  4   N/A
FRIPP NEARSHORE  NOT AVBL


STATION/POSITION TIME  TEMP    WIND        PRES    WAVE   SWELL
                       AIR SEA DIR/SP/G            HT/PER HT/PER/DIR
                 (UTC) (F)     (DEG/KT/KT) (MB)    (FT/S) (FT/S/D)
5E ST. MARYS GA  1500      61                N/A     1/11
FRYING PAN BUOY  1500   55 63   20/ 12/ 14 1022.2R   2/ 9   2/ 80/ 9
BUOY 41025       1400   48                 1020.5R   2/ 8
CAPE LOOKOUT NC  1400   47     330/  9/ 10 1020.5R
BUOY 41002       1413   68 72  360/ 10/ 14 1019.5    3/ 9   3/ 9
BUOY 41010       1500   70 76  330/  8/ 10 1020.6R   2/10   2/100/10
ST AUGUSTINE FL  1500   56     330/  4/  4 1021.9R


$$


USA.gov is the U.S. government's official web portal to all federal, state and local government web resources and services.